Stations météo

Publicité
Pau, France (7610): Température de l'air & dewpoint: 17.04.2017 23:00:00 - 23.04.2017 23:00:00 (CEST)Pau, France (7610): Température de l'air 5cm: 17.04.2017 23:00:00 - 23.04.2017 23:00:00 (CEST)Pau, France (7610): Température de l'air -20cm & Température de l'air -100cm: 17.04.2017 23:00:00 - 23.04.2017 23:00:00 (CEST)Pau, France (7610): Vitesse du vent & gusts: 17.04.2017 23:00:00 - 23.04.2017 23:00:00 (CEST)Pau, France (7610): Direction du vent: 17.04.2017 23:00:00 - 23.04.2017 23:00:00 (CEST)Pau, France (7610): reduced air pressure: 17.04.2017 23:00:00 - 23.04.2017 23:00:00 (CEST)Pau, France (7610): visibility: 17.04.2017 23:00:00 - 23.04.2017 23:00:00 (CEST)Pau, France (7610): Ensoleillement: 17.04.2017 23:00:00 - 23.04.2017 23:00:00 (CEST)Pau, France (7610): Quantités de précipitations: 17.04.2017 23:00:00 - 23.04.2017 23:00:00 (CEST)
Date & Time tt [°C] td [°C] tt 5cm [°C] tt -20cm [°C] tt -100cm [°C] ff [km/h] ff [knt] fx [km/h] fx [knt] dd ppp [hPa] vv [km] sd [min] rr [mm]
23.04.2017 23:00:00 15,6 5,2 6,3 13,6 12,7 3 1 15 8 N 1017,0 6 0 0,0
23.04.2017 22:00:00 17,8 5,4 8,4 13,5 12,8 10 6 22 12 N 1016,4 6 0 0,0
23.04.2017 21:00:00 20,6 1,9 9,6 13,4 12,7 4 2 8 4 NW 1015,7 7 40 0,0
23.04.2017 20:00:00 23,2 3,7 16,5 13,3 12,7 6 4 14 8 N 1015,3 6 60 0,0
23.04.2017 19:00:00 24,1 2,3 22,2 13,2 12,7 7 4 20 11 N 1015,2 6 60 0,0
23.04.2017 18:00:00 24,3 2,4 27,7 13,0 12,7 9 5 21 11 NNW 1015,4 7 60 0,0
23.04.2017 17:00:00 24,4 3,6 33,8 12,9 12,7 14 7 23 13 N 1015,6 5 60 0,0
23.04.2017 16:00:00 24,3 4,1 35,9 12,8 12,7 11 6 24 13 NNE 1016,1 9 60 0,0
23.04.2017 15:00:00 23,9 4,3 37,6 12,7 12,7 9 5 29 15 NE 1016,7 6 60 0,0
23.04.2017 14:00:00 23,1 5,5 35,3 12,7 12,7 8 5 22 12 NNW 1017,2 6 60 0,0
23.04.2017 13:00:00 21,5 5,8 36,0 12,7 12,8 9 5 16 9 NNW 1018,0 6 60 0,0
23.04.2017 12:00:00 19,7 6,8 33,4 12,7 12,7 5 3 11 6 NNW 1018,6 6 60 0,0
23.04.2017 11:00:00 16,9 6,1 24,9 12,8 12,7 2 1 10 5 NW 1019,0 6 60 0,0
23.04.2017 10:00:00 15,2 6,2 11,0 12,8 12,7 4 2 6 4 N 1019,3 6 60 0,0
23.04.2017 09:00:00 12,7 6,1 4,2 12,9 12,7 2 1 7 4 ESE 1019,5 7 60 0,0
23.04.2017 08:00:00 8,2 3,8 0,6 13,0 12,8 6 4 8 4 SE 1019,7 6 31 0,0
23.04.2017 07:00:00 6,9 3,1 -0,5 13,0 12,8 8 4 9 5 SE 1019,4 6 0 0,0
23.04.2017 06:00:00 6,7 2,8 0,0 13,1 12,8 4 2 7 4 ESE 1019,4 7 0 0,0
23.04.2017 05:00:00 6,8 3,0 0,3 13,2 12,8 8 4 9 5 SSE 1019,5 6 0 0,0
23.04.2017 04:00:00 7,6 3,1 0,7 13,2 12,8 0 0 9 5 N 1019,5 7 0 0,0
23.04.2017 03:00:00 8,8 3,0 1,4 13,3 12,8 5 3 7 4 SE 1019,6 7 0 0,0
23.04.2017 02:00:00 9,9 3,0 1,9 13,3 12,8 4 2 7 4 ESE 1020,0 7 0 0,0
23.04.2017 01:00:00 11,1 2,6 2,8 13,3 12,8 4 2 5 3 E 1019,9 7 0 0,0
23.04.2017 00:00:00 13,2 3,0 3,5 13,2 12,8 5 3 8 4 SSE 1019,8 7 0 0,0
22.04.2017 23:00:00 14,4 2,6 4,3 13,2 12,8 4 2 8 5 SE 1019,6 7 0 0,0
22.04.2017 22:00:00 16,6 1,5 5,7 13,2 12,8 5 3 8 4 NE 1019,1 8 0 0,0
22.04.2017 21:00:00 19,8 0,7 8,3 13,0 12,8 6 3 12 6 NE 1018,5 8 38 0,0
22.04.2017 20:00:00 22,4 -1,0 15,1 12,9 12,8 10 5 18 10 NNE 1018,2 7 60 0,0
22.04.2017 19:00:00 23,5 0,5 21,5 12,8 12,8 10 5 19 10 NNE 1018,3 9 60 0,0
22.04.2017 18:00:00 24,0 1,6 27,5 12,7 12,8 11 6 19 10 NNE 1018,5 7 60 0,0
22.04.2017 17:00:00 24,2 1,7 34,5 12,6 12,8 12 6 29 15 NNE 1018,8 8 60 0,0
22.04.2017 16:00:00 24,1 2,8 37,0 12,4 12,8 10 5 20 11 NE 1019,5 7 60 0,0
22.04.2017 15:00:00 23,3 1,6 37,8 12,4 12,8 10 5 27 15 NE 1020,5 8 60 0,0
22.04.2017 14:00:00 23,0 3,0 38,1 12,4 12,8 11 6 24 13 NE 1021,1 6 60 0,0
22.04.2017 13:00:00 21,9 3,5 37,1 12,3 12,8 10 5 18 10 NNE 1021,8 7 60 0,0
22.04.2017 12:00:00 20,7 4,7 34,0 12,4 12,8 4 2 10 6 NNE 1022,6 7 60 0,0
22.04.2017 11:00:00 18,1 3,5 26,7 12,4 12,8 2 1 8 4 WSW 1023,1 8 60 0,0
22.04.2017 10:00:00 16,1 4,5 10,3 12,5 12,8 0 0 8 5 N 1023,5 8 60 0,0
22.04.2017 09:00:00 12,1 4,6 4,0 12,6 12,8 6 4 9 5 SE 1023,8 10 60 0,0
22.04.2017 08:00:00 7,9 2,4 0,5 12,6 12,8 6 3 11 6 ESE 1024,2 7 37 0,0
22.04.2017 07:00:00 5,7 1,2 -0,4 12,7 12,8 4 2 9 5 ESE 1024,0 7 0 0,0
22.04.2017 06:00:00 5,9 1,2 -0,6 12,7 12,8 5 3 9 5 SE 1024,0 7 0 0,0
22.04.2017 05:00:00 6,3 0,4 -0,6 12,8 12,8 6 3 8 4 SE 1024,1 7 0 0,0
22.04.2017 04:00:00 6,6 0,3 0,0 12,9 12,8 4 2 8 4 ESE 1024,2 7 0 0,0
22.04.2017 03:00:00 8,5 0,0 0,2 12,9 12,8 6 3 9 5 SSE 1024,5 8 0 0,0
22.04.2017 02:00:00 8,7 -0,1 0,5 12,9 12,8 0 0 5 3 N 1024,8 8 0 0,0
22.04.2017 01:00:00 9,8 -0,4 1,2 13,0 12,8 0 0 4 2 N 1024,7 8 0 0,0
22.04.2017 00:00:00 11,0 -0,2 1,8 12,9 12,8 4 2 16 8 SSE 1024,7 8 0 0,0
21.04.2017 23:00:00 12,6 -1,0 2,6 12,9 12,8 8 4 14 8 E 1024,8 8 0 0,0
21.04.2017 22:00:00 14,9 -2,1 4,3 12,8 12,8 5 3 9 5 E 1024,5 8 0 0,0
21.04.2017 21:00:00 17,1 -2,6 7,2 12,7 12,8 6 3 17 9 ENE 1024,1 7 37 0,0
21.04.2017 20:00:00 19,6 -4,0 13,1 12,7 12,8 13 7 24 13 ENE 1023,8 7 60 0,0
21.04.2017 19:00:00 20,6 -3,2 18,8 12,6 12,8 13 7 24 13 ENE 1023,9 8 60 0,0
21.04.2017 18:00:00 21,0 -2,8 26,0 12,5 12,8 13 7 31 17 E 1023,8 6 60 0,0
21.04.2017 17:00:00 20,8 -3,0 33,4 12,3 12,8 16 9 28 15 NE 1024,4 6 60 0,0
21.04.2017 16:00:00 20,5 -3,3 36,0 12,3 12,8 16 8 39 21 ENE 1025,0 4,0 60 0,0
21.04.2017 15:00:00 19,9 -4,4 37,7 12,2 12,8 13 7 24 13 ENE 1025,8 6 60 0,0
21.04.2017 14:00:00 19,0 -3,8 37,8 12,2 12,8 11 6 24 13 ENE 1026,4 8 60 0,0
21.04.2017 13:00:00 18,3 -2,6 36,4 12,2 12,8 14 7 26 14 ENE 1026,9 6 60 0,0
21.04.2017 12:00:00 17,3 -1,9 31,6 12,3 12,9 10 6 19 10 ENE 1027,1 7 60 0,0
21.04.2017 11:00:00 14,9 0,7 19,9 12,4 12,8 6 3 14 7 NNE 1027,1 7 60 0,0
21.04.2017 10:00:00 11,8 1,1 5,8 12,4 12,8 4 2 9 5 E 1027,2 7 60 0,0
21.04.2017 09:00:00 7,4 -0,1 -2,0 12,5 12,8 4 2 9 5 S 1027,5 8 60 0,0
21.04.2017 08:00:00 2,9 -1,8 -4,3 12,6 12,8 4 2 11 6 E 1027,1 6 30 0,0
21.04.2017 07:00:00 1,3 -2,3 -4,3 12,7 12,8 5 3 8 4 ESE 1027,1 7 0 0,0
21.04.2017 06:00:00 2,7 -2,6 -4,1 12,8 12,8 6 3 9 5 SE 1027,0 7 0 0,0
21.04.2017 05:00:00 1,7 -2,8 -3,9 12,9 12,9 5 3 9 5 ENE 1027,2 7 0 0,0
21.04.2017 04:00:00 3,8 -3,0 -3,3 13,0 12,9 7 4 11 6 SSE 1026,8 8 0 0,0
21.04.2017 03:00:00 3,6 -3,0 -3,2 13,0 12,9 0 0 5 3 N 1027,0 7 0 0,0
21.04.2017 02:00:00 5,2 -3,4 -2,5 13,1 12,8 0 0 8 4 N 1027,2 8 0 0,0
21.04.2017 01:00:00 7,1 -4,4 -2,1 13,1 12,8 5 3 7 4 SSE 1027,2 7 0 0,0
21.04.2017 00:00:00 8,1 -4,1 -1,9 13,2 12,9 6 3 10 5 S 1027,2 7 0 0,0
20.04.2017 23:00:00 10,0 -5,2 -0,4 13,2 12,9 7 4 10 5 E 1027,1 7 0 0,0
20.04.2017 22:00:00 11,0 -5,5 0,6 13,1 12,9 5 3 13 7 E 1026,7 7 0 0,0
20.04.2017 21:00:00 12,9 -5,7 4,3 13,0 12,8 9 5 27 15 ENE 1026,1 7 40 0,0
20.04.2017 20:00:00 15,2 -5,8 10,1 13,0 12,8 16 9 28 15 ENE 1025,5 7 60 0,0
20.04.2017 19:00:00 16,1 -6,3 15,8 12,9 12,9 15 8 32 18 E 1025,4 11 60 0,0
20.04.2017 18:00:00 16,4 -6,7 22,4 12,9 12,9 19 10 35 19 ENE 1025,3 12 60 0,0
20.04.2017 17:00:00 16,6 -6,5 28,5 12,8 12,9 19 10 35 19 ENE 1025,5 11 60 0,0
20.04.2017 16:00:00 16,2 -6,8 30,3 12,8 12,9 18 10 38 21 E 1026,1 10 60 0,0
20.04.2017 15:00:00 15,7 -5,4 33,4 12,7 12,9 17 9 38 21 ENE 1026,7 10 60 0,0
20.04.2017 14:00:00 14,7 -5,7 33,2 12,7 12,8 15 8 31 17 E 1027,2 9 60 0,0
20.04.2017 13:00:00 13,6 -5,1 29,4 12,7 12,8 18 10 29 16 ENE 1027,7 9 60 0,0
20.04.2017 12:00:00 11,7 -3,3 23,9 12,8 12,8 16 9 34 18 ENE 1028,2 8 60 0,0
20.04.2017 11:00:00 10,7 -2,4 16,2 12,8 12,8 20 11 32 18 ENE 1028,1 3,3 60 0,0
20.04.2017 10:00:00 8,7 -3,2 7,7 12,9 12,9 22 12 32 17 ENE 1028,3 3,6 60 0,0
20.04.2017 09:00:00 7,4 -3,2 2,3 13,0 12,9 16 9 27 15 E 1028,3 7 60 0,0
20.04.2017 08:00:00 5,5 -3,9 -1,0 13,0 12,9 16 9 26 14 E 1028,1 7 23 0,0
20.04.2017 07:00:00 4,8 -4,0 -0,2 13,2 12,9 10 5 25 13 E 1027,9 7 0 0,0
20.04.2017 06:00:00 5,5 -4,1 0,6 13,2 12,9 12 7 27 15 E 1027,5 7 0 0,0
20.04.2017 05:00:00 5,8 -3,8 -0,3 13,3 12,9 13 7 22 12 E 1027,3 7 0 0,0
20.04.2017 04:00:00 6,3 -3,6 0,8 13,3 12,9 10 6 21 11 E 1027,0 7 0 0,0
20.04.2017 03:00:00 7,6 -3,9 3,1 13,4 12,9 12 7 32 17 E 1027,0 7 0 0,0
20.04.2017 02:00:00 8,4 -3,8 3,6 13,4 12,8 18 10 33 18 ENE 1027,0 7 0 0,0
20.04.2017 01:00:00 9,4 -3,9 3,4 13,5 12,9 18 10 31 17 ENE 1026,9 8 0 0,0
20.04.2017 00:00:00 9,6 -3,7 0,8 13,5 12,9 18 10 29 15 NE 1026,4 8 0 0,0
19.04.2017 23:00:00 9,8 -4,2 1,1 13,5 12,9 8 5 21 11 E 1026,0 8 0 0,0
19.04.2017 22:00:00 11,1 -4,2 4,0 13,5 12,9 13 7 22 12 E 1025,4 8 0 0,0
19.04.2017 21:00:00 12,3 -4,4 5,1 13,4 12,8 12 6 31 17 ENE 1024,8 8 38 0,0
19.04.2017 20:00:00 14,3 -4,5 9,9 13,4 12,8 18 10 34 19 ENE 1024,1 10 60 0,0
19.04.2017 19:00:00 15,3 -4,1 14,8 13,3 12,8 21 12 34 18 NE 1023,9 12 60 0,0
19.04.2017 18:00:00 15,9 -4,7 21,9 13,3 12,9 19 11 46 25 ENE 1023,7 14 60 0,0
19.04.2017 17:00:00 15,9 -5,8 26,5 13,2 12,8 22 12 41 22 E 1023,8 12 60 0,0
19.04.2017 16:00:00 15,8 -3,7 29,9 13,2 12,8 22 12 37 20 NE 1024,2 14 60 0,0
19.04.2017 15:00:00 15,2 -2,7 30,5 13,2 12,8 23 12 44 24 ENE 1024,5 13 60 0,0
19.04.2017 14:00:00 14,5 -2,5 29,7 13,2 12,9 28 15 41 22 NE 1024,8 14 60 0,0
19.04.2017 13:00:00 13,4 -2,6 28,3 13,2 12,8 25 13 40 22 ENE 1025,5 14 60 0,0
19.04.2017 12:00:00 12,4 -1,5 25,1 13,3 12,8 21 12 36 20 ENE 1026,0 14 60 0,0
19.04.2017 11:00:00 11,7 -0,5 18,5 13,3 12,8 20 11 32 17 E 1025,9 12 60 0,0
19.04.2017 10:00:00 9,7 -0,8 8,5 13,4 12,9 18 10 31 17 E 1026,0 16 60 0,0
19.04.2017 09:00:00 7,9 -1,1 1,6 13,5 12,8 16 8 26 14 E 1026,0 17 60 0,0
19.04.2017 08:00:00 5,8 -1,8 -1,5 13,6 12,8 10 5 19 10 ENE 1025,8 17 22 0,0
19.04.2017 07:00:00 4,9 -2,7 -1,4 13,7 12,9 4 2 16 9 E 1025,4 15 0 0,0
19.04.2017 06:00:00 5,6 -2,7 -1,0 13,7 12,8 9 5 16 9 ENE 1025,0 15 0 0,0
19.04.2017 05:00:00 6,2 -2,9 -0,5 13,8 12,8 7 4 16 9 ENE 1025,0 15 0 0,0
19.04.2017 04:00:00 7,0 -3,3 -0,1 13,8 12,8 3 1 16 9 ENE 1024,8 16 0 0,0
19.04.2017 03:00:00 8,5 -3,4 2,5 13,8 12,8 10 5 21 11 ENE 1025,0 15 0 0,0
19.04.2017 02:00:00 9,4 -3,5 4,6 13,9 12,9 12 7 28 15 ENE 1024,9 15 0 0,0
19.04.2017 01:00:00 10,6 -2,8 6,0 13,9 12,8 18 10 29 16 ENE 1024,6 15 0 0,0
19.04.2017 00:00:00 11,4 -2,4 6,2 13,9 12,8 13 7 27 15 NE 1024,1 16 0 0,0
18.04.2017 23:00:00 12,3 -1,6 5,2 13,9 12,8 15 8 26 14 NE 1023,7 17 0 0,0
18.04.2017 22:00:00 12,7 0,1 5,2 13,8 12,8 10 5 17 9 ENE 1022,7 18 0 0,0
18.04.2017 21:00:00 14,3 0,9 7,7 13,8 12,8 9 5 29 16 NE 1021,7 18 31 0,0
18.04.2017 20:00:00 16,6 1,5 12,1 13,7 12,8 17 9 25 14 NE 1020,9 21 60 0,0
18.04.2017 19:00:00 17,6 3,5 16,8 13,6 12,8 15 8 27 15 NNE 1020,8 27 52 0,0
18.04.2017 18:00:00 18,5 4,6 20,3 13,5 12,8 13 7 23 12 NNE 1020,5 20 49 0,0
18.04.2017 17:00:00 18,7 4,8 28,5 13,4 12,8 11 6 24 13 N 1020,7 27 60 0,0
18.04.2017 16:00:00 18,3 5,2 29,8 13,4 12,8 13 7 30 16 NNE 1021,0 30 58 0,0
18.04.2017 15:00:00 18,2 6,1 33,5 13,3 12,8 10 5 24 13 N 1021,2 20 60 0,0
18.04.2017 14:00:00 17,7 7,1 26,0 13,3 12,8 14 8 23 13 NNE 1021,7 20 53 0,0
18.04.2017 13:00:00 16,6 7,0 32,8 13,3 12,8 9 5 25 13 ENE 1022,2 20 60 0,0
18.04.2017 12:00:00 15,4 6,7 27,3 13,4 12,9 8 4 16 9 ENE 1022,5 16 60 0,0
18.04.2017 11:00:00 12,6 9,4 15,0 13,4 12,8 3 1 9 5 NW 1022,7 11 40 0,0
18.04.2017 10:00:00 10,4 9,2 11,6 13,4 12,8 3 2 9 5 SW 1022,6 6 0 0,0
18.04.2017 09:00:00 9,6 8,7 9,7 13,5 12,8 0 0 8 4 N 1022,5 5 0 0,0
18.04.2017 08:00:00 9,2 8,3 9,1 13,5 12,8 3 2 9 5 WSW 1022,2 6 0 0,0
18.04.2017 07:00:00 9,2 8,6 4,3 13,6 12,8 4 2 7 4 SSW 1021,7 9 0 0,0
18.04.2017 06:00:00 6,8 5,9 1,5 13,7 12,8 3 1 6 3 ESE 1021,7 8 0 0,0
18.04.2017 05:00:00 6,9 5,8 1,5 13,7 12,8 3 2 4 2 E 1021,5 11 0 0,0
18.04.2017 04:00:00 7,7 6,3 2,3 13,7 12,8 5 3 6 3 SSE 1021,1 7 0 0,0
18.04.2017 03:00:00 8,8 6,6 2,4 13,7 12,8 0 0 3 2 N 1021,4 12 0 0,0
18.04.2017 02:00:00 9,8 7,7 2,8 13,8 12,8 2 1 8 4 W 1021,6 15 0 0,0
18.04.2017 01:00:00 10,8 7,8 4,6 13,8 12,9 5 3 12 6 WSW 1021,6 17 0 0,0
18.04.2017 00:00:00 11,9 8,0 5,8 13,8 12,8 8 5 13 7 WSW 1021,4 17 0 0,0
17.04.2017 23:00:00 13,4 8,0 6,2 13,7 12,8 7 4 12 7 W 1021,2 18 0 0,0

tt = Température de l'air
td = dewpoint
tt 5cm = Température de l'air 5cm
tt -20cm = Température de l'air -20cm
tt -100cm = Température de l'air -100cm
ff = Vitesse du vent
fx = gusts
dd = Direction du vent
ppp = reduced air pressure
vv = visibility
sd = Ensoleillement
rr = Quantités de précipitations

stations d'obs. à proximité